TimeEDT,TemperatureF,Dew PointF,Humidity,Sea Level PressureIn,VisibilityMPH,Wind Direction,Wind SpeedMPH,Gust SpeedMPH,PrecipitationIn,Events,Conditions,WindDirDegrees,DateUTC
12:16 AM,71.6,64.4,78,30.21,10.0,Calm,Calm,-,N/A,,Mostly Cloudy,0,2013-06-23 04:16:00
12:36 AM,71.6,64.4,78,30.22,10.0,Calm,Calm,-,N/A,,Overcast,0,2013-06-23 04:36:00
12:56 AM,71.6,66.2,83,30.21,10.0,Calm,Calm,-,N/A,,Overcast,0,2013-06-23 04:56:00
1:16 AM,71.6,66.2,83,30.21,10.0,Calm,Calm,-,N/A,,Overcast,0,2013-06-23 05:16:00
1:36 AM,71.6,66.2,83,30.21,10.0,Calm,Calm,-,N/A,,Overcast,0,2013-06-23 05:36:00
1:56 AM,71.6,66.2,83,30.20,10.0,Calm,Calm,-,N/A,,Overcast,0,2013-06-23 05:56:00
2:16 AM,71.6,68.0,88,30.20,10.0,Calm,Calm,-,N/A,,Mostly Cloudy,0,2013-06-23 06:16:00
2:36 AM,71.6,68.0,88,30.20,10.0,Calm,Calm,-,N/A,,Mostly Cloudy,0,2013-06-23 06:36:00
2:56 AM,73.4,69.8,88,30.19,10.0,ESE,3.5,-,N/A,,Overcast,110,2013-06-23 06:56:00
3:16 AM,73.4,69.8,88,30.19,10.0,Calm,Calm,-,N/A,,Scattered Clouds,0,2013-06-23 07:16:00
3:39 AM,73.4,69.8,88,30.18,10.0,SE,3.5,-,N/A,,Scattered Clouds,130,2013-06-23 07:39:00
3:56 AM,73.4,69.8,88,30.18,10.0,SE,3.5,-,N/A,,Clear,140,2013-06-23 07:56:00
4:16 AM,73.4,69.8,88,30.18,10.0,Calm,Calm,-,N/A,,Clear,0,2013-06-23 08:16:00
4:36 AM,73.4,69.8,88,30.18,10.0,Calm,Calm,-,N/A,,Clear,0,2013-06-23 08:36:00
4:56 AM,73.4,69.8,88,30.18,10.0,ESE,3.5,-,N/A,,Clear,120,2013-06-23 08:56:00
5:16 AM,73.4,69.8,88,30.18,10.0,SE,4.6,-,N/A,,Clear,130,2013-06-23 09:16:00
5:37 AM,73.4,69.8,88,30.18,10.0,SE,4.6,-,N/A,,Clear,130,2013-06-23 09:37:00
5:56 AM,73.4,69.8,88,30.18,10.0,SSE,3.5,-,N/A,,Clear,150,2013-06-23 09:56:00
6:16 AM,73.4,71.6,94,30.18,10.0,SSE,4.6,-,N/A,,Clear,160,2013-06-23 10:16:00
6:36 AM,75.2,71.6,89,30.19,10.0,SSE,5.8,-,N/A,,Clear,160,2013-06-23 10:36:00
6:56 AM,75.2,71.6,89,30.19,10.0,South,5.8,-,N/A,,Clear,170,2013-06-23 10:56:00
7:16 AM,77.0,71.6,83,30.20,10.0,South,5.8,-,N/A,,Clear,190,2013-06-23 11:16:00
7:36 AM,77.0,73.4,89,30.20,10.0,South,6.9,-,N/A,,Clear,170,2013-06-23 11:36:00
7:56 AM,78.8,73.4,83,30.20,10.0,South,5.8,-,N/A,,Scattered Clouds,180,2013-06-23 11:56:00
8:18 AM,78.8,73.4,83,30.20,10.0,South,8.1,-,N/A,,Clear,180,2013-06-23 12:18:00
8:36 AM,78.8,73.4,83,30.20,10.0,South,8.1,-,N/A,,Scattered Clouds,170,2013-06-23 12:36:00
8:56 AM,78.8,73.4,83,30.20,10.0,South,10.4,-,N/A,,Scattered Clouds,170,2013-06-23 12:56:00
9:16 AM,80.6,73.4,79,30.20,10.0,South,6.9,-,N/A,,Scattered Clouds,180,2013-06-23 13:16:00
9:36 AM,80.6,73.4,79,30.20,10.0,South,9.2,17.3,N/A,,Scattered Clouds,190,2013-06-23 13:36:00
9:56 AM,80.6,73.4,79,30.20,10.0,South,9.2,-,N/A,,Mostly Cloudy,190,2013-06-23 13:56:00
10:16 AM,80.6,73.4,79,30.20,10.0,South,9.2,-,N/A,,Mostly Cloudy,180,2013-06-23 14:16:00
10:36 AM,80.6,73.4,79,30.20,10.0,South,9.2,-,N/A,,Mostly Cloudy,190,2013-06-23 14:36:00
10:56 AM,82.4,73.4,74,30.20,10.0,SSW,9.2,-,N/A,,Mostly Cloudy,210,2013-06-23 14:56:00
11:17 AM,82.4,73.4,74,30.20,10.0,SSW,8.1,-,N/A,,Overcast,210,2013-06-23 15:17:00
11:37 AM,82.4,71.6,70,30.20,10.0,SSW,5.8,17.3,N/A,,Mostly Cloudy,200,2013-06-23 15:37:00
11:56 AM,84.2,71.6,66,30.20,10.0,SW,10.4,-,N/A,,Overcast,220,2013-06-23 15:56:00
12:16 PM,84.2,71.6,66,30.20,10.0,SW,15.0,19.6,N/A,,Mostly Cloudy,220,2013-06-23 16:16:00
12:36 PM,84.2,71.6,66,30.19,10.0,SSW,11.5,-,N/A,,Mostly Cloudy,210,2013-06-23 16:36:00
12:56 PM,86.0,69.8,58,30.18,10.0,SSW,17.3,-,N/A,,Scattered Clouds,210,2013-06-23 16:56:00
1:16 PM,84.2,71.6,66,30.18,10.0,South,8.1,21.9,N/A,,Scattered Clouds,180,2013-06-23 17:16:00
1:36 PM,84.2,73.4,70,30.17,10.0,South,8.1,-,N/A,,Mostly Cloudy,170,2013-06-23 17:36:00
1:56 PM,86.0,71.6,62,30.17,10.0,SW,10.4,-,N/A,,Mostly Cloudy,230,2013-06-23 17:56:00
2:16 PM,87.8,69.8,55,30.17,10.0,SW,15.0,20.7,N/A,,Scattered Clouds,230,2013-06-23 18:16:00
2:36 PM,87.8,69.8,55,30.16,10.0,WSW,12.7,20.7,N/A,,Scattered Clouds,240,2013-06-23 18:36:00
2:56 PM,87.8,69.8,55,30.17,10.0,SW,10.4,16.1,N/A,,Scattered Clouds,230,2013-06-23 18:56:00
3:17 PM,86.0,69.8,58,30.16,10.0,SW,13.8,-,N/A,,Mostly Cloudy,220,2013-06-23 19:17:00
3:36 PM,84.2,73.4,70,30.16,10.0,South,10.4,16.1,N/A,,Overcast,170,2013-06-23 19:36:00
3:56 PM,84.2,73.4,70,30.15,10.0,SSE,10.4,-,N/A,,Mostly Cloudy,160,2013-06-23 19:56:00
4:16 PM,84.2,73.4,70,30.15,10.0,South,10.4,-,N/A,,Mostly Cloudy,180,2013-06-23 20:16:00
4:36 PM,84.2,73.4,70,30.14,10.0,SSE,9.2,-,N/A,,Scattered Clouds,160,2013-06-23 20:36:00
4:56 PM,86.0,73.4,66,30.14,10.0,South,9.2,-,N/A,,Clear,180,2013-06-23 20:56:00
5:16 PM,84.2,73.4,70,30.13,10.0,South,5.8,-,N/A,,Clear,180,2013-06-23 21:16:00
5:36 PM,84.2,73.4,70,30.13,10.0,South,11.5,17.3,N/A,,Clear,180,2013-06-23 21:36:00
5:56 PM,84.2,73.4,70,30.13,10.0,South,8.1,-,N/A,,Clear,180,2013-06-23 21:56:00
6:16 PM,82.4,73.4,74,30.13,10.0,South,8.1,-,N/A,,Clear,190,2013-06-23 22:16:00
6:36 PM,82.4,73.4,74,30.13,10.0,South,6.9,-,N/A,,Clear,180,2013-06-23 22:36:00
6:56 PM,82.4,73.4,74,30.13,10.0,South,8.1,-,N/A,,Clear,180,2013-06-23 22:56:00
7:16 PM,80.6,73.4,79,30.13,10.0,South,9.2,-,N/A,,Clear,170,2013-06-23 23:16:00
7:36 PM,80.6,73.4,79,30.13,10.0,South,6.9,-,N/A,,Clear,180,2013-06-23 23:36:00
7:56 PM,80.6,73.4,79,30.13,10.0,South,6.9,-,N/A,,Clear,170,2013-06-23 23:56:00
8:16 PM,78.8,73.4,83,30.13,10.0,South,5.8,-,N/A,,Clear,190,2013-06-24 00:16:00
8:36 PM,78.8,73.4,83,30.13,10.0,South,6.9,-,N/A,,Clear,190,2013-06-24 00:36:00
8:57 PM,78.8,73.4,83,30.13,10.0,South,5.8,-,N/A,,Clear,180,2013-06-24 00:57:00
9:16 PM,78.8,73.4,83,30.13,10.0,SSW,8.1,-,N/A,,Clear,200,2013-06-24 01:16:00
9:36 PM,78.8,73.4,83,30.13,10.0,SSW,11.5,-,N/A,,Clear,210,2013-06-24 01:36:00
9:56 PM,80.6,71.6,74,30.14,10.0,SW,11.5,17.3,N/A,,Clear,220,2013-06-24 01:56:00
10:18 PM,80.6,71.6,74,30.15,10.0,SSW,11.5,-,N/A,,Clear,210,2013-06-24 02:18:00
10:36 PM,80.6,71.6,74,30.15,10.0,SSW,9.2,-,N/A,,Clear,210,2013-06-24 02:36:00
10:56 PM,80.6,71.6,74,30.15,10.0,SSW,9.2,16.1,N/A,,Clear,210,2013-06-24 02:56:00
11:16 PM,80.6,71.6,74,30.15,10.0,SW,6.9,-,N/A,,Clear,220,2013-06-24 03:16:00
11:36 PM,78.8,73.4,83,30.15,10.0,SW,8.1,-,N/A,,Clear,220,2013-06-24 03:36:00
11:56 PM,78.8,73.4,83,30.16,10.0,SW,6.9,-,N/A,,Clear,230,2013-06-24 03:56:00